Temp_Advection
nan nan nan nan nan nan nan nan nan nan nan nan nan nan nan nan nan nan nan nan nan nan nan nan nan nan nan nan nan nan nan nan
nan -0 -0 -0 1 1 -1 -1 1 1 0 2 1 -1 1 0 0 -0 -1 -0 0 0 -0 -0 0 -0 0 0 1 0 0 nan
nan -0 1 2 1 -1 -2 -1 0 0 -0 -1 -0 0 1 1 0 -1 -2 -1 0 0 -0 0 0 0 0 0 0 1 0 nan
nan -2 -0 -0 -0 -1 -2 -2 -0 1 1 0 0 0 -0 -0 -1 -2 -3 1 1 0 0 0 0 0 0 -0 0 1 0 nan
nan -1 -1 -1 -1 -1 -1 -3 0 1 1 0 -1 -1 -0 -1 -1 -1 -1 1 1 0 0 -0 0 0 0 0 1 1 0 nan
nan -1 -1 -1 -1 -0 -1 -1 -1 0 -0 -1 0 1 1 0 -0 -1 -1 0 1 0 0 -0 -0 0 0 0 1 1 1 nan
nan -1 -0 -0 -1 0 0 -0 1 1 1 1 1 -1 1 -0 -1 -0 0 1 1 1 0 -0 -0 0 0 0 1 1 1 nan
nan -1 -1 -1 -1 1 1 1 2 2 2 1 0 -0 1 -0 1 1 -0 -0 1 1 1 0 0 1 1 1 1 1 1 nan
nan -1 -1 -1 -0 1 2 1 1 1 1 1 1 2 0 0 0 0 1 0 -0 -0 1 1 -0 0 0 1 1 0 1 nan
nan -1 -1 -1 -0 2 2 0 1 1 1 1 1 1 1 1 1 0 0 -0 -0 0 0 -1 -2 -1 3 2 -1 -0 1 nan
nan -1 -1 -0 0 2 1 1 2 1 1 1 1 1 1 0 0 0 0 0 0 0 -0 -1 -1 1 -1 0 0 -1 1 nan
nan -1 -0 0 1 1 1 3 2 0 0 0 0 0 0 0 0 0 0 0 0 0 -0 -0 0 -1 -1 1 1 0 1 nan
nan -0 0 1 1 2 2 1 0 0 0 1 0 0 0 0 0 0 -0 -0 0 -0 0 0 -0 -0 0 -0 -1 1 2 nan
nan -0 -0 1 0 0 1 1 0 0 0 -0 -0 0 0 0 0 0 -0 -0 -0 -0 -0 0 0 -0 -0 0 -0 0 1 nan
nan -0 -0 -0 -0 1 1 0 -0 1 1 0 0 -0 -0 -0 -0 0 0 0 0 0 0 0 0 0 0 0 0 -0 -0 nan
nan -1 -0 -0 0 -0 0 1 1 0 -0 -1 -1 -0 -0 -0 -0 -0 -0 0 0 0 0 0 0 0 0 0 0 0 0 nan
nan -1 -1 -0 -1 -0 1 0 0 -1 -1 0 0 -0 -0 -0 -0 -0 -0 -1 -0 -0 -0 -0 -0 -0 -0 -0 -0 -0 0 nan
nan -0 -0 0 0 1 -1 -0 1 0 0 1 0 0 -0 -0 -0 -0 -0 -1 -0 -1 -1 -1 -1 -1 -1 -1 -1 -0 0 nan
nan nan nan nan nan nan nan nan nan nan nan nan nan nan nan nan nan nan nan nan nan nan nan nan nan nan nan nan nan nan nan nan
Wind_Speed
35 39 36 32 34 31 28 28 34 34 38 47 38 32 35 27 25 27 33 32 31 30 29 28 28 28 27 28 27 20 18 16
34 38 35 32 33 32 30 29 35 34 36 36 34 32 33 30 27 26 30 33 32 31 30 30 29 29 28 27 28 28 23 18
29 29 34 24 26 27 27 27 34 35 36 38 36 36 32 29 26 26 30 33 34 33 32 32 31 29 29 28 28 29 28 28
23 18 18 17 19 20 20 24 34 36 36 37 32 28 24 26 28 30 36 35 35 34 34 33 31 30 31 30 30 31 32 31
16 14 15 14 14 18 15 21 35 36 40 39 43 40 39 35 33 33 37 35 33 34 35 34 32 31 32 32 31 31 31 32
18 16 14 15 9 7 11 12 34 37 39 43 48 33 28 22 24 29 34 34 36 35 36 36 34 34 33 33 32 32 33 31
22 18 14 15 10 2 6 3 26 35 39 39 37 40 25 22 25 26 28 30 35 38 37 35 36 35 34 34 33 32 33 32
29 27 24 20 17 12 11 7 13 24 30 27 36 27 31 25 23 22 24 31 32 36 41 40 39 38 36 34 33 32 32 33
34 30 27 22 20 18 16 15 11 11 12 15 26 31 34 29 27 21 21 31 32 32 35 43 43 40 38 36 33 30 29 30
37 33 30 27 24 23 20 16 14 11 10 10 15 17 21 26 26 29 31 28 30 30 33 33 42 38 40 38 37 33 31 28
40 36 31 29 26 27 25 18 20 17 13 9 9 10 14 19 22 25 23 28 26 28 30 32 31 33 34 39 41 34 32 32
37 36 33 29 30 27 27 29 27 24 19 15 9 6 6 9 16 20 26 26 27 23 23 24 26 27 29 33 35 29 35 38
36 38 37 37 38 38 32 31 30 25 22 20 17 11 7 2 2 7 12 20 23 20 13 16 21 22 27 29 33 36 39 37
38 40 41 39 39 38 37 34 30 26 23 20 17 15 11 8 4 1 2 6 12 18 14 16 14 15 23 28 33 35 37 37
33 37 39 38 37 35 36 35 33 29 27 25 23 20 16 13 10 7 4 2 5 11 15 19 18 20 22 26 29 31 32 34
29 32 34 38 37 37 35 34 34 34 33 32 32 27 22 19 15 12 9 6 5 2 3 8 14 22 25 26 26 26 28 30
27 27 30 35 35 32 32 33 33 31 31 33 32 30 28 26 24 21 17 15 13 8 6 4 6 10 16 21 24 23 26 29
23 23 25 28 29 33 33 30 28 27 29 31 31 30 30 31 28 26 26 24 20 18 16 14 11 9 9 14 19 20 22 25
21 22 23 25 26 27 28 29 32 32 31 29 27 28 28 27 27 28 28 27 26 24 22 20 18 16 12 9 7 4 9 16
Wind_Direction
270 272 269 266 253 252 249 242 233 225 220 223 217 217 218 212 214 220 218 219 218 220 224 223 221 222 222 223 226 218 216 218
278 270 267 267 256 257 251 241 231 224 214 207 204 207 214 210 213 215 221 220 219 219 223 224 221 222 222 222 225 225 223 215
291 273 271 268 265 267 251 234 225 221 215 210 210 211 212 212 211 215 219 222 222 221 223 225 224 222 222 222 221 225 226 225
305 300 287 282 272 277 268 235 221 217 213 207 203 202 200 207 212 215 223 225 224 223 226 227 228 227 227 226 224 227 226 229
316 317 312 309 293 271 271 248 204 212 211 203 200 203 205 212 212 216 225 225 228 226 228 229 230 231 232 232 231 230 232 234
336 335 327 318 311 268 231 251 207 202 212 207 209 201 201 211 211 216 223 227 229 233 230 229 230 231 234 236 236 233 234 234
349 348 348 349 352 76 142 208 189 199 193 201 206 211 184 203 218 223 227 234 233 234 234 235 235 234 234 237 239 240 239 237
359 2 9 10 5 50 97 87 129 171 185 182 186 171 223 224 224 231 239 241 238 237 234 234 234 235 236 239 239 241 240 239
4 4 13 15 18 43 81 69 107 131 150 151 168 183 198 216 226 222 247 250 250 246 243 236 238 239 239 241 239 240 239 240
2 6 18 20 27 46 71 63 78 104 139 167 192 189 206 219 230 239 241 246 256 250 250 252 242 241 243 243 243 245 243 243
5 10 17 26 40 53 67 69 77 80 98 150 146 196 220 231 236 233 232 234 240 254 253 249 252 246 250 247 248 251 249 249
7 15 23 30 45 53 60 60 69 67 74 77 107 166 205 234 242 246 245 244 248 247 256 255 251 253 254 251 248 250 265 254
15 20 30 38 45 51 53 56 60 58 60 63 68 76 90 137 221 253 251 245 242 245 258 255 256 256 259 257 255 248 248 249
20 23 26 38 44 50 51 58 59 55 56 58 63 64 71 70 75 186 234 255 251 244 240 238 256 266 265 265 255 254 253 251
20 21 23 36 38 42 48 49 55 55 62 61 61 57 54 55 56 58 80 156 204 223 228 245 250 248 249 254 255 256 256 254
19 21 23 25 34 40 43 46 52 52 53 58 57 55 55 55 54 51 54 67 84 125 220 238 240 242 246 252 251 253 255 259
20 20 21 30 25 31 42 45 52 51 54 56 57 57 55 55 54 55 52 52 51 43 30 3 291 278 261 256 253 251 253 256
20 20 26 31 27 31 42 42 49 54 55 56 55 54 52 53 52 53 52 48 45 45 44 37 24 357 302 298 275 273 265 254
16 20 28 35 32 38 39 45 51 52 53 53 55 54 53 52 50 51 50 48 47 44 44 42 36 32 27 11 347 305 273 258
Height
1436 1431 1432 1432 1432 1434 1434 1435 1439 1440 1443 1446 1450 1458 1463 1468 1473 1473 1477 1481 1484 1488 1492 1496 1499 1501 1504 1507 1510 1514 1516 1519
1426 1425 1423 1424 1424 1424 1423 1426 1431 1434 1436 1439 1443 1449 1455 1460 1467 1469 1471 1475 1480 1483 1487 1491 1494 1496 1499 1502 1506 1509 1511 1515
1420 1418 1417 1414 1415 1413 1412 1415 1421 1425 1428 1432 1438 1441 1448 1454 1461 1464 1466 1469 1474 1478 1481 1485 1489 1492 1494 1496 1500 1503 1506 1508
1422 1416 1414 1411 1408 1405 1404 1405 1410 1415 1420 1426 1431 1437 1443 1447 1452 1456 1457 1463 1469 1473 1475 1479 1483 1487 1489 1491 1493 1497 1500 1502
1423 1417 1412 1407 1399 1394 1396 1397 1397 1404 1410 1416 1418 1422 1428 1434 1439 1446 1450 1458 1463 1468 1470 1473 1477 1481 1483 1485 1488 1491 1495 1496
1423 1415 1409 1404 1393 1390 1389 1390 1391 1394 1401 1405 1407 1417 1426 1436 1439 1440 1442 1450 1458 1461 1465 1468 1471 1473 1476 1479 1481 1484 1487 1491
1423 1415 1406 1398 1391 1387 1385 1386 1385 1389 1394 1398 1405 1408 1408 1428 1434 1438 1436 1443 1451 1455 1460 1462 1465 1467 1470 1472 1475 1478 1481 1483
1423 1413 1403 1398 1393 1385 1383 1382 1381 1384 1389 1393 1399 1390 1419 1427 1432 1436 1431 1435 1442 1447 1452 1455 1458 1460 1464 1467 1468 1471 1474 1477
1424 1413 1408 1402 1395 1388 1382 1382 1383 1383 1386 1389 1394 1402 1416 1421 1422 1426 1430 1434 1436 1441 1445 1450 1453 1456 1459 1462 1462 1464 1467 1469
1426 1418 1409 1405 1398 1390 1384 1387 1388 1387 1387 1388 1390 1396 1406 1415 1418 1422 1428 1432 1432 1435 1439 1442 1445 1449 1452 1456 1458 1458 1460 1462
1429 1419 1414 1408 1401 1395 1391 1401 1389 1390 1389 1404 1389 1396 1402 1408 1414 1420 1423 1426 1428 1429 1434 1437 1439 1441 1443 1447 1451 1453 1455 1456
1436 1427 1420 1415 1408 1402 1397 1392 1389 1392 1396 1394 1399 1403 1404 1408 1414 1416 1419 1420 1424 1425 1429 1431 1434 1436 1437 1440 1443 1448 1449 1448
1443 1433 1424 1415 1407 1403 1399 1392 1394 1400 1400 1400 1400 1403 1407 1411 1412 1413 1414 1416 1419 1420 1424 1426 1428 1427 1430 1433 1435 1438 1438 1439
1446 1439 1432 1424 1417 1413 1411 1408 1409 1406 1404 1406 1408 1408 1410 1410 1411 1412 1414 1412 1414 1417 1419 1421 1422 1422 1424 1426 1427 1428 1430 1430
1454 1446 1441 1433 1429 1425 1419 1419 1419 1418 1416 1415 1411 1410 1412 1412 1412 1412 1411 1411 1412 1414 1414 1415 1416 1416 1417 1419 1419 1421 1421 1422
1462 1455 1450 1445 1436 1429 1426 1424 1421 1418 1417 1416 1416 1416 1416 1416 1414 1413 1412 1412 1410 1411 1410 1410 1410 1411 1411 1412 1412 1413 1414 1415
1468 1463 1457 1450 1448 1443 1439 1432 1428 1428 1428 1426 1423 1422 1423 1421 1419 1417 1415 1413 1411 1410 1409 1407 1408 1407 1406 1406 1405 1405 1406 1407
1474 1472 1466 1461 1456 1449 1443 1443 1442 1441 1436 1433 1430 1429 1427 1423 1423 1420 1417 1415 1415 1412 1410 1408 1408 1406 1405 1402 1401 1400 1400 1400
1479 1475 1471 1467 1463 1459 1456 1452 1446 1443 1439 1437 1438 1434 1432 1431 1429 1425 1423 1421 1417 1416 1413 1412 1411 1407 1404 1402 1398 1396 1395 1395